Location: Newark
(42.7575°N, 71.4644°W)
Time: 16:27:48
(UTC+00:00)

OTV 5 (USA 277) - Visible Passes

Search period start: 15 October 2019 00:00
Search period end: 25 October 2019 00:00
Orbit: 310 x 324 km, 54.5° (Epoch: 08 October)

Date Brightness Start Highest point End Pass type
(mag) Time Alt. Az. Time Alt. Az. Time Alt. Az.
15 Oct ? 09:57:17 10° NNW 09:59:09 16° NNE 10:00:59 10° ENE visible
16 Oct ? 10:11:27 10° NNW 10:13:55 29° NNE 10:16:22 10° E visible
17 Oct ? 08:54:19 12° NNE 08:54:19 12° NNE 08:55:12 10° NE visible
17 Oct ? 10:25:49 10° NW 10:28:34 73° NE 10:31:17 10° SE visible
18 Oct ? 09:08:44 21° NNE 09:08:44 21° NNE 09:10:51 10° E visible
19 Oct ? 09:23:15 43° NNE 09:23:22 43° NE 09:26:00 10° ESE visible
20 Oct ? 09:37:54 65° SW 09:37:57 65° SW 09:40:39 10° SE visible
21 Oct ? 09:52:41 22° SW 09:52:41 22° SW 09:54:34 10° S visible
